| time (UTC) | temp F | wind direction | speed knots | gust knots | rain 1hr in | rain 24hr in | rain mn in | humidity % | barometer mb |
| 20260904090752 | 63 | 321 | 0.0 | 1.7 | 0.00 | 0.00 | 0.00 | 91 | 1007.5 |
| 20260904085753 | 63 | 321 | 0.0 | 1.7 | 0.00 | 0.00 | 0.00 | 90 | 1007.5 |
| 20260904084744 | 63 | 321 | 0.0 | 1.7 | 0.00 | 0.00 | 0.00 | 91 | 1007.5 |
| 20260904084244 | 63 | 321 | 0.0 | 0.0 | 0.00 | 0.00 | 0.00 | 91 | 1007.8 |
| 20260904083743 | 63 | 321 | 0.0 | 0.9 | 0.00 | 0.00 | 0.00 | 90 | 1007.8 |
| 20260904083243 | 63 | 321 | 0.0 | 0.9 | 0.00 | 0.00 | 0.00 | 90 | 1007.8 |
| 20260904082740 | 63 | 321 | 0.0 | 0.9 | 0.00 | 0.00 | 0.00 | 90 | 1007.9 |
| 20260904082243 | 63 | 321 | 0.0 | 0.9 | 0.00 | 0.00 | 0.00 | 90 | 1007.9 |
| 20260904081741 | 63 | 321 | 0.0 | 0.9 | 0.00 | 0.00 | 0.00 | 90 | 1007.9 |
| 20260904081233 | 63 | 321 | 0.0 | 0.9 | 0.00 | 0.00 | 0.00 | 90 | 1008.0 |
| 20260904080733 | 63 | 321 | 0.0 | 1.7 | 0.00 | 0.00 | 0.00 | 90 | 1008.0 |
| 20260904080233 | 63 | 321 | 0.0 | 1.7 | 0.00 | 0.00 | 0.00 | 90 | 1008.0 |
| 20260904075724 | 63 | 321 | 0.0 | 0.9 | 0.00 | 0.00 | 0.00 | 90 | 1008.0 |
| 20260904075218 | 63 | 321 | 0.0 | 0.9 | 0.00 | 0.00 | 0.00 | 90 | 1008.0 |
| 20260904074718 | 63 | 321 | 0.0 | 0.9 | 0.00 | 0.00 | 0.00 | 90 | 1008.0 |
| 20260904073714 | 63 | 321 | 0.9 | 2.6 | 0.00 | 0.00 | 0.00 | 90 | 1008.0 |
| 20260904073213 | 63 | 321 | 0.9 | 2.6 | 0.00 | 0.00 | 0.00 | 90 | 1008.0 |
| 20260904072707 | 63 | 321 | 0.0 | 2.6 | 0.00 | 0.00 | 0.00 | 90 | 1008.0 |
| 20260904072208 | 63 | 320 | 0.0 | 0.0 | 0.00 | 0.00 | 0.00 | 90 | 1008.0 |
| 20260904071708 | 63 | 320 | 0.0 | 0.0 | 0.00 | 0.00 | 0.00 | 90 | 1008.0 |
| 20260904071206 | 63 | 320 | 0.0 | 0.0 | 0.00 | 0.00 | 0.00 | 89 | 1008.0 |
| 20260904070203 | 63 | 320 | 0.0 | 0.0 | 0.00 | 0.00 | 0.00 | 89 | 1008.0 |
| 20260904065154 | 63 | 320 | 0.0 | 0.0 | 0.00 | 0.00 | 0.00 | 89 | 1008.0 |
| 20260904064152 | 63 | 320 | 0.0 | 0.0 | 0.00 | 0.00 | 0.00 | 89 | 1008.0 |
| 20260904063650 | 63 | 320 | 0.0 | 0.0 | 0.00 | 0.00 | 0.00 | 89 | 1008.0 |
| 20260904063146 | 63 | 320 | 0.0 | 0.0 | 0.00 | 0.00 | 0.00 | 89 | 1008.0 |
| 20260904062648 | 63 | 320 | 0.0 | 0.0 | 0.00 | 0.00 | 0.00 | 89 | 1008.0 |
| 20260904062145 | 63 | 319 | 0.0 | 0.0 | 0.00 | 0.00 | 0.00 | 89 | 1008.0 |
| 20260904061651 | 63 | 319 | 0.0 | 0.0 | 0.00 | 0.00 | 0.00 | 89 | 1008.0 |
| 20260904060638 | 63 | 319 | 0.0 | 0.0 | 0.00 | 0.00 | 0.00 | 89 | 1008.0 |
| 20260904060138 | 63 | 319 | 0.0 | 0.0 | 0.00 | 0.00 | 0.00 | 89 | 1008.0 |
| 20260904055638 | 63 | 319 | 0.0 | 0.0 | 0.00 | 0.00 | 0.00 | 89 | 1008.0 |
| 20260904054631 | 63 | 319 | 0.0 | 0.0 | 0.00 | 0.00 | 0.00 | 89 | 1008.0 |
| 20260904054134 | 63 | 319 | 0.0 | 0.0 | 0.00 | 0.00 | 0.00 | 89 | 1007.9 |
| 20260904053630 | 63 | 319 | 0.0 | 0.9 | 0.00 | 0.00 | 0.00 | 89 | 1007.9 |
| 20260904053128 | 63 | 316 | 0.0 | 1.7 | 0.00 | 0.00 | 0.00 | 89 | 1008.0 |
| 20260904052628 | 63 | 315 | 0.0 | 1.7 | 0.00 | 0.00 | 0.00 | 89 | 1008.0 |
| 20260904052126 | 63 | 292 | 0.0 | 2.6 | 0.00 | 0.00 | 0.00 | 89 | 1008.0 |
| 20260904051625 | 63 | 292 | 0.0 | 2.6 | 0.00 | 0.00 | 0.00 | 89 | 1008.0 |
| 20260904045618 | 62 | 290 | 0.0 | 0.0 | 0.00 | 0.00 | 0.00 | 89 | 1007.9 |
| 20260904045117 | 62 | 290 | 0.0 | 0.0 | 0.00 | 0.00 | 0.00 | 89 | 1007.9 |
| 20260904044616 | 62 | 290 | 0.0 | 0.0 | 0.00 | 0.00 | 0.00 | 89 | 1007.9 |
| 20260904044113 | 62 | 290 | 0.0 | 0.0 | 0.00 | 0.00 | 0.00 | 89 | 1007.9 |
| 20260904043609 | 62 | 290 | 0.0 | 2.6 | 0.00 | 0.00 | 0.00 | 89 | 1007.9 |
| 20260904043107 | 62 | 290 | 0.0 | 2.6 | 0.00 | 0.00 | 0.00 | 89 | 1007.9 |
| 20260904042602 | 62 | 290 | 0.0 | 1.7 | 0.00 | 0.00 | 0.00 | 89 | 1007.9 |
| 20260904042100 | 62 | 290 | 0.0 | 1.7 | 0.00 | 0.00 | 0.00 | 89 | 1007.9 |
| 20260904041058 | 62 | 290 | 0.0 | 1.7 | 0.00 | 0.00 | 0.00 | 89 | 1007.8 |
| 20260904040552 | 62 | 290 | 0.9 | 1.7 | 0.00 | 0.00 | 0.00 | 89 | 1007.8 |
| 20260904040047 | 62 | 290 | 0.9 | 2.6 | 0.00 | 0.00 | 0.00 | 89 | 1007.8 |
| 20260904035548 | 62 | 290 | 0.0 | 2.6 | 0.00 | 0.00 | 0.00 | 88 | 1007.5 |
| 20260904034042 | 62 | 290 | 0.9 | 2.6 | 0.00 | 0.00 | 0.00 | 87 | 1007.4 |
| 20260904033541 | 62 | 290 | 0.0 | 2.6 | 0.00 | 0.00 | 0.00 | 87 | 1007.4 |
| 20260904033040 | 62 | 290 | 0.0 | 2.6 | 0.00 | 0.00 | 0.00 | 87 | 1007.4 |
| 20260904032034 | 62 | 290 | 0.9 | 3.5 | 0.00 | 0.00 | 0.00 | 86 | 1007.4 |
| 20260904031535 | 62 | 290 | 0.9 | 1.7 | 0.00 | 0.00 | 0.00 | 86 | 1007.4 |
| 20260904031035 | 62 | 290 | 0.9 | 3.5 | 0.00 | 0.00 | 0.00 | 86 | 1007.4 |
| 20260904025023 | 63 | 279 | 1.7 | 3.5 | 0.00 | 0.00 | 0.00 | 85 | 1007.4 |
| 20260904024522 | 63 | 281 | 2.6 | 6.1 | 0.00 | 0.00 | 0.00 | 85 | 1007.4 |
| 20260904024027 | 63 | 282 | 2.6 | 6.1 | 0.00 | 0.00 | 0.00 | 84 | 1007.4 |
| 20260904023521 | 63 | 314 | 2.6 | 6.1 | 0.00 | 0.00 | 0.00 | 84 | 1007.4 |
| 20260904023021 | 63 | 301 | 3.5 | 6.1 | 0.00 | 0.00 | 0.00 | 84 | 1007.4 |
| 20260904022524 | 64 | 294 | 3.5 | 7.0 | 0.00 | 0.00 | 0.00 | 83 | 1007.3 |
| 20260904021018 | 64 | 309 | 3.5 | 7.8 | 0.00 | 0.00 | 0.00 | 82 | 1007.2 |
| 20260904020516 | 64 | 303 | 3.5 | 7.8 | 0.00 | 0.00 | 0.00 | 81 | 1007.2 |
| 20260904015513 | 65 | 288 | 3.5 | 7.8 | 0.00 | 0.00 | 0.00 | 80 | 1007.2 |
| 20260904014505 | 65 | 281 | 3.5 | 7.8 | 0.00 | 0.00 | 0.00 | 79 | 1007.2 |
| 20260904014007 | 65 | 309 | 3.5 | 7.8 | 0.00 | 0.00 | 0.00 | 78 | 1007.3 |
| 20260904013502 | 66 | 279 | 3.5 | 7.0 | 0.00 | 0.00 | 0.00 | 78 | 1007.3 |
| 20260904012959 | 66 | 284 | 3.5 | 9.6 | 0.00 | 0.00 | 0.00 | 77 | 1007.3 |
| 20260904012458 | 67 | 295 | 3.5 | 8.7 | 0.00 | 0.00 | 0.00 | 76 | 1007.4 |
| 20260904011956 | 67 | 275 | 3.5 | 8.7 | 0.00 | 0.00 | 0.00 | 75 | 1007.4 |
| 20260904011458 | 67 | 306 | 4.3 | 8.7 | 0.00 | 0.00 | 0.00 | 75 | 1007.4 |
| 20260904010956 | 68 | 307 | 4.3 | 9.6 | 0.00 | 0.00 | 0.00 | 74 | 1007.5 |
| 20260904010457 | 68 | 313 | 4.3 | 10.4 | 0.00 | 0.00 | 0.00 | 74 | 1007.5 |
| 20260904005956 | 69 | 275 | 4.3 | 12.2 | 0.00 | 0.00 | 0.00 | 73 | 1007.5 |
| 20260904005454 | 69 | 293 | 4.3 | 12.2 | 0.00 | 0.00 | 0.00 | 71 | 1007.5 |
| 20260904004958 | 70 | 312 | 3.5 | 9.6 | 0.00 | 0.00 | 0.00 | 69 | 1007.5 |
| 20260904003950 | 71 | 311 | 3.5 | 7.0 | 0.00 | 0.00 | 0.00 | 66 | 1007.6 |
| 20260904002948 | 71 | 315 | 3.5 | 8.7 | 0.00 | 0.00 | 0.00 | 67 | 1007.6 |
| 20260904002447 | 71 | 303 | 4.3 | 9.6 | 0.00 | 0.00 | 0.00 | 67 | 1007.6 |
| 20260904001946 | 71 | 315 | 4.3 | 9.6 | 0.00 | 0.00 | 0.00 | 67 | 1007.6 |
| 20260904001445 | 71 | 324 | 4.3 | 9.6 | 0.00 | 0.00 | 0.00 | 68 | 1007.6 |
| 20260904000941 | 71 | 312 | 4.3 | 9.6 | 0.00 | 0.00 | 0.00 | 67 | 1007.6 |
| 20260904000444 | 71 | 311 | 4.3 | 9.6 | 0.00 | 0.00 | 0.00 | 68 | 1007.6 |
| 20260903235942 | 72 | 301 | 4.3 | 9.6 | 0.00 | 0.00 | 0.00 | 66 | 1007.6 |
| 20260903235441 | 72 | 0 | 4.3 | 8.7 | 0.00 | 0.00 | 0.00 | 65 | 1007.8 |
| 20260903234940 | 72 | 321 | 4.3 | 8.7 | 0.00 | 0.00 | 0.00 | 66 | 1007.8 |
| 20260903234439 | 72 | 319 | 4.3 | 8.7 | 0.00 | 0.00 | 0.00 | 66 | 1007.8 |
| 20260903233936 | 72 | 323 | 4.3 | 9.6 | 0.00 | 0.00 | 0.00 | 67 | 1007.8 |
| 20260903232934 | 72 | 302 | 5.2 | 12.2 | 0.00 | 0.00 | 0.00 | 65 | 1007.8 |
| 20260903231436 | 73 | 303 | 4.3 | 10.4 | 0.00 | 0.00 | 0.00 | 64 | 1008.0 |
| 20260903230940 | 73 | 58 | 4.3 | 9.6 | 0.00 | 0.00 | 0.00 | 65 | 1008.0 |
| 20260903230434 | 73 | 309 | 4.3 | 10.4 | 0.00 | 0.00 | 0.00 | 64 | 1008.0 |
| 20260903225930 | 73 | 312 | 4.3 | 10.4 | 0.00 | 0.00 | 0.00 | 62 | 1008.0 |
| 20260903224929 | 73 | 298 | 4.3 | 10.4 | 0.00 | 0.00 | 0.00 | 65 | 1008.1 |
| 20260903224431 | 73 | 321 | 5.2 | 11.3 | 0.00 | 0.00 | 0.00 | 63 | 1008.1 |
| 20260903223927 | 73 | 0 | 5.2 | 11.3 | 0.00 | 0.00 | 0.00 | 63 | 1008.1 |
| 20260903222424 | 73 | 305 | 6.1 | 11.3 | 0.00 | 0.00 | 0.00 | 62 | 1008.1 |
| 20260903221921 | 74 | 294 | 5.2 | 11.3 | 0.00 | 0.00 | 0.00 | 62 | 1008.1 |
| 20260903221416 | 74 | 326 | 5.2 | 11.3 | 0.00 | 0.00 | 0.00 | 62 | 1008.1 |
| 20260903220917 | 74 | 335 | 5.2 | 10.4 | 0.00 | 0.00 | 0.00 | 62 | 1008.3 |
| 20260903220416 | 74 | 305 | 4.3 | 10.4 | 0.00 | 0.00 | 0.00 | 61 | 1008.3 |
| 20260903215915 | 74 | 338 | 5.2 | 10.4 | 0.00 | 0.00 | 0.00 | 62 | 1008.3 |
| 20260903215413 | 74 | 322 | 5.2 | 10.4 | 0.00 | 0.00 | 0.00 | 62 | 1008.6 |
| 20260903214910 | 73 | 304 | 6.1 | 11.3 | 0.00 | 0.00 | 0.00 | 63 | 1008.6 |
| 20260903214407 | 73 | 310 | 6.1 | 11.3 | 0.00 | 0.00 | 0.00 | 62 | 1008.6 |
| 20260903213906 | 74 | 311 | 4.3 | 10.4 | 0.00 | 0.00 | 0.00 | 61 | 1008.6 |
| 20260903213404 | 75 | 319 | 4.3 | 8.7 | 0.00 | 0.00 | 0.00 | 60 | 1008.6 |
| 20260903212403 | 74 | 308 | 5.2 | 10.4 | 0.00 | 0.00 | 0.00 | 60 | 1008.5 |
| 20260903211901 | 75 | 320 | 4.3 | 10.4 | 0.00 | 0.00 | 0.00 | 60 | 1008.5 |
| 20260903211357 | 76 | 338 | 4.3 | 9.6 | 0.00 | 0.00 | 0.00 | 60 | 1008.6 |
| 20260903210858 | 76 | 313 | 4.3 | 10.4 | 0.00 | 0.00 | 0.00 | 61 | 1008.6 |
| 20260903210356 | 75 | 351 | 4.3 | 10.4 | 0.00 | 0.00 | 0.00 | 61 | 1008.6 |
| 20260903205854 | 76 | 323 | 4.3 | 9.6 | 0.00 | 0.00 | 0.00 | 60 | 1008.6 |
| 20260903205351 | 75 | 312 | 4.3 | 11.3 | 0.00 | 0.00 | 0.00 | 61 | 1008.6 |
| 20260903204848 | 76 | 334 | 4.3 | 11.3 | 0.00 | 0.00 | 0.00 | 60 | 1008.6 |
| 20260903203847 | 76 | 329 | 4.3 | 10.4 | 0.00 | 0.00 | 0.00 | 58 | 1008.6 |
| 20260903203344 | 76 | 341 | 3.5 | 8.7 | 0.00 | 0.00 | 0.00 | 59 | 1008.6 |
| 20260903201844 | 75 | 316 | 4.3 | 8.7 | 0.00 | 0.00 | 0.00 | 60 | 1008.6 |
| 20260903201342 | 76 | 327 | 4.3 | 9.6 | 0.00 | 0.00 | 0.00 | 60 | 1008.6 |
| 20260903200843 | 76 | 313 | 4.3 | 9.6 | 0.00 | 0.00 | 0.00 | 58 | 1008.6 |
| 20260903195843 | 76 | 5 | 4.3 | 9.6 | 0.00 | 0.00 | 0.00 | 59 | 1008.9 |
| 20260903195340 | 76 | 317 | 4.3 | 9.6 | 0.00 | 0.00 | 0.00 | 59 | 1008.9 |
| 20260903194842 | 76 | 312 | 3.5 | 9.6 | 0.00 | 0.00 | 0.00 | 59 | 1008.9 |
| 20260903194338 | 76 | 311 | 3.5 | 7.8 | 0.00 | 0.00 | 0.00 | 59 | 1009.0 |
| 20260903193839 | 76 | 322 | 3.5 | 7.8 | 0.00 | 0.00 | 0.00 | 59 | 1009.0 |
| 20260903193335 | 75 | 305 | 4.3 | 11.3 | 0.00 | 0.00 | 0.00 | 60 | 1009.0 |
| 20260903191828 | 74 | 318 | 4.3 | 10.4 | 0.00 | 0.00 | 0.00 | 61 | 1009.1 |
| 20260903190322 | 74 | 325 | 4.3 | 8.7 | 0.00 | 0.00 | 0.00 | 62 | 1009.2 |
| 20260903185820 | 74 | 22 | 4.3 | 8.7 | 0.00 | 0.00 | 0.00 | 62 | 1009.3 |
| 20260903184318 | 74 | 315 | 4.3 | 11.3 | 0.00 | 0.00 | 0.00 | 62 | 1009.6 |
| 20260903183318 | 74 | 318 | 3.5 | 9.6 | 0.00 | 0.00 | 0.00 | 62 | 1009.6 |
| 20260903182816 | 74 | 320 | 3.5 | 7.8 | 0.00 | 0.00 | 0.00 | 64 | 1009.6 |
| 20260903182312 | 73 | 311 | 3.5 | 7.0 | 0.00 | 0.00 | 0.00 | 62 | 1009.6 |
| 20260903181811 | 73 | 337 | 3.5 | 7.8 | 0.00 | 0.00 | 0.00 | 62 | 1009.6 |
| 20260903181307 | 74 | 309 | 3.5 | 7.8 | 0.00 | 0.00 | 0.00 | 60 | 1009.7 |
| 20260903180804 | 75 | 321 | 3.5 | 7.0 | 0.00 | 0.00 | 0.00 | 59 | 1009.7 |
| 20260903180305 | 75 | 355 | 2.6 | 7.0 | 0.00 | 0.00 | 0.00 | 59 | 1009.7 |
| 20260903175804 | 75 | 13 | 2.6 | 5.2 | 0.00 | 0.00 | 0.00 | 61 | 1009.7 |
| 20260903174759 | 74 | 309 | 2.6 | 5.2 | 0.00 | 0.00 | 0.00 | 61 | 1009.7 |
| 20260903174259 | 73 | 344 | 1.7 | 6.1 | 0.00 | 0.00 | 0.00 | 62 | 1009.7 |
| 20260903173755 | 73 | 334 | 2.6 | 6.1 | 0.00 | 0.00 | 0.00 | 63 | 1009.7 |
| 20260903173251 | 73 | 328 | 1.7 | 5.2 | 0.00 | 0.00 | 0.00 | 63 | 1009.7 |
| 20260903172750 | 73 | 329 | 2.6 | 7.0 | 0.00 | 0.00 | 0.00 | 64 | 1009.8 |
| 20260903172250 | 72 | 327 | 2.6 | 7.0 | 0.00 | 0.00 | 0.00 | 64 | 1009.7 |
| 20260903171751 | 71 | 340 | 1.7 | 5.2 | 0.00 | 0.00 | 0.00 | 66 | 1009.7 |
| 20260903171248 | 70 | 333 | 1.7 | 4.3 | 0.00 | 0.00 | 0.00 | 68 | 1009.7 |
| 20260903170747 | 69 | 333 | 2.6 | 4.3 | 0.00 | 0.00 | 0.00 | 68 | 1009.7 |
| 20260903170246 | 69 | 334 | 2.6 | 5.2 | 0.00 | 0.00 | 0.00 | 70 | 1009.7 |
| 20260903165745 | 69 | 334 | 2.6 | 5.2 | 0.00 | 0.00 | 0.00 | 71 | 1010.0 |
| 20260903164743 | 69 | 317 | 1.7 | 4.3 | 0.00 | 0.00 | 0.00 | 70 | 1010.0 |
| 20260903164242 | 68 | 322 | 1.7 | 4.3 | 0.00 | 0.00 | 0.00 | 73 | 1010.1 |
| 20260903163738 | 68 | 321 | 2.6 | 6.1 | 0.00 | 0.00 | 0.00 | 74 | 1010.1 |
| 20260903162738 | 67 | 327 | 1.7 | 5.2 | 0.00 | 0.00 | 0.00 | 76 | 1010.1 |
| 20260903162234 | 66 | 5 | 1.7 | 5.2 | 0.00 | 0.00 | 0.00 | 78 | 1010.1 |
| 20260903161736 | 65 | 320 | 2.6 | 5.2 | 0.00 | 0.00 | 0.00 | 77 | 1010.1 |
| 20260903160730 | 64 | 329 | 2.6 | 4.3 | 0.00 | 0.00 | 0.00 | 81 | 1010.2 |
| 20260903155226 | 63 | 331 | 1.7 | 5.2 | 0.00 | 0.00 | 0.00 | 85 | 1010.1 |
| 20260903154723 | 62 | 328 | 2.6 | 5.2 | 0.00 | 0.00 | 0.00 | 86 | 1010.1 |
| 20260903154223 | 62 | 317 | 2.6 | 5.2 | 0.00 | 0.00 | 0.00 | 86 | 1010.2 |
| 20260903153726 | 62 | 329 | 1.7 | 5.2 | 0.00 | 0.00 | 0.00 | 86 | 1010.2 |
| 20260903153223 | 62 | 329 | 1.7 | 5.2 | 0.00 | 0.00 | 0.00 | 87 | 1010.2 |
| 20260903152721 | 61 | 333 | 1.7 | 4.3 | 0.00 | 0.00 | 0.00 | 88 | 1010.4 |
| 20260903152220 | 61 | 333 | 1.7 | 4.3 | 0.00 | 0.00 | 0.00 | 88 | 1010.4 |
| 20260903151216 | 61 | 343 | 1.7 | 3.5 | 0.00 | 0.00 | 0.00 | 89 | 1010.5 |
| 20260903150714 | 60 | 344 | 1.7 | 3.5 | 0.00 | 0.00 | 0.00 | 90 | 1010.5 |
| 20260903150218 | 60 | 344 | 1.7 | 3.5 | 0.00 | 0.00 | 0.00 | 90 | 1010.5 |
| 20260903145210 | 59 | 341 | 1.7 | 4.3 | 0.00 | 0.00 | 0.00 | 91 | 1010.5 |
| 20260903144705 | 59 | 325 | 1.7 | 4.3 | 0.00 | 0.00 | 0.00 | 92 | 1010.5 |
| 20260903144202 | 59 | 313 | 0.9 | 4.3 | 0.00 | 0.00 | 0.00 | 92 | 1010.4 |
| 20260903143658 | 58 | 290 | 0.9 | 2.6 | 0.00 | 0.00 | 0.00 | 92 | 1010.4 |
| 20260903143158 | 58 | 290 | 0.9 | 3.5 | 0.00 | 0.00 | 0.00 | 93 | 1010.4 |
| 20260903142154 | 58 | 290 | 0.9 | 2.6 | 0.00 | 0.00 | 0.00 | 93 | 1010.1 |
| 20260903141145 | 57 | 290 | 0.0 | 1.7 | 0.00 | 0.00 | 0.00 | 93 | 1010.1 |
| 20260903140647 | 57 | 290 | 0.9 | 2.6 | 0.00 | 0.00 | 0.00 | 93 | 1010.1 |
| 20260903140146 | 57 | 290 | 0.9 | 3.5 | 0.00 | 0.00 | 0.00 | 93 | 1010.1 |
| 20260903135640 | 56 | 290 | 1.7 | 3.5 | 0.00 | 0.00 | 0.00 | 93 | 1010.0 |
| 20260903135137 | 56 | 290 | 0.9 | 2.6 | 0.00 | 0.00 | 0.00 | 93 | 1010.0 |
| 20260903134136 | 56 | 290 | 0.9 | 3.5 | 0.00 | 0.00 | 0.00 | 92 | 1010.0 |
| 20260903133136 | 56 | 290 | 0.0 | 2.6 | 0.00 | 0.00 | 0.00 | 92 | 1010.0 |
| 20260903132632 | 56 | 290 | 0.0 | 1.7 | 0.00 | 0.00 | 0.00 | 92 | 1010.0 |
| 20260903132128 | 57 | 290 | 0.0 | 1.7 | 0.00 | 0.00 | 0.00 | 92 | 1010.0 |
| 20260903131630 | 57 | 290 | 0.9 | 2.6 | 0.00 | 0.00 | 0.00 | 92 | 1010.0 |
| 20260903131126 | 57 | 290 | 0.9 | 2.6 | 0.00 | 0.00 | 0.00 | 91 | 1010.0 |
| 20260903130619 | 57 | 290 | 0.9 | 1.7 | 0.00 | 0.00 | 0.00 | 91 | 1010.0 |
| 20260903130116 | 57 | 290 | 0.0 | 1.7 | 0.00 | 0.00 | 0.00 | 91 | 1010.0 |
| 20260903125617 | 57 | 290 | 0.0 | 1.7 | 0.00 | 0.00 | 0.00 | 91 | 1010.0 |
| 20260903125117 | 58 | 290 | 0.9 | 1.7 | 0.00 | 0.00 | 0.00 | 91 | 1010.0 |
| 20260903124610 | 58 | 290 | 0.0 | 1.7 | 0.00 | 0.00 | 0.00 | 91 | 1010.0 |
| 20260903124108 | 58 | 290 | 0.9 | 1.7 | 0.00 | 0.00 | 0.00 | 91 | 1009.8 |
| 20260903123611 | 58 | 290 | 0.9 | 1.7 | 0.00 | 0.00 | 0.00 | 90 | 1009.8 |
| 20260903123105 | 58 | 290 | 0.9 | 1.7 | 0.00 | 0.00 | 0.00 | 90 | 1009.8 |
| 20260903122604 | 58 | 290 | 0.9 | 1.7 | 0.00 | 0.00 | 0.00 | 90 | 1009.9 |
| 20260903122101 | 58 | 290 | 0.9 | 1.7 | 0.00 | 0.00 | 0.00 | 90 | 1009.9 |
| 20260903121558 | 58 | 290 | 0.0 | 1.7 | 0.00 | 0.00 | 0.00 | 91 | 1009.9 |
| 20260903121058 | 59 | 290 | 0.0 | 2.6 | 0.00 | 0.00 | 0.00 | 91 | 1010.0 |
| 20260903120558 | 59 | 290 | 0.0 | 2.6 | 0.00 | 0.00 | 0.00 | 91 | 1010.0 |
| 20260903120057 | 59 | 290 | 0.0 | 1.7 | 0.00 | 0.00 | 0.00 | 91 | 1010.0 |
| 20260903115555 | 59 | 290 | 0.9 | 3.5 | 0.00 | 0.00 | 0.00 | 91 | 1010.1 |
| 20260903115053 | 59 | 290 | 0.9 | 3.5 | 0.00 | 0.00 | 0.00 | 91 | 1010.1 |
| 20260903114552 | 59 | 290 | 0.0 | 1.7 | 0.00 | 0.00 | 0.00 | 92 | 1010.1 |
| 20260903114050 | 59 | 290 | 0.0 | 0.0 | 0.00 | 0.00 | 0.00 | 92 | 1010.1 |
| 20260903113550 | 58 | 290 | 0.0 | 0.0 | 0.00 | 0.00 | 0.00 | 92 | 1010.1 |
| 20260903112047 | 58 | 290 | 0.0 | 0.9 | 0.00 | 0.00 | 0.00 | 92 | 1010.2 |
| 20260903111545 | 58 | 290 | 0.0 | 1.7 | 0.00 | 0.00 | 0.00 | 92 | 1010.2 |
| 20260903111045 | 58 | 290 | 0.0 | 1.7 | 0.00 | 0.00 | 0.00 | 92 | 1010.3 |
| 20260903110052 | 58 | 290 | 0.0 | 1.7 | 0.00 | 0.00 | 0.00 | 93 | 1010.3 |
| 20260903105544 | 58 | 290 | 0.0 | 0.9 | 0.00 | 0.00 | 0.00 | 92 | 1010.5 |
| 20260903105045 | 58 | 290 | 0.0 | 0.0 | 0.00 | 0.00 | 0.00 | 92 | 1010.5 |
| 20260903104540 | 58 | 290 | 0.0 | 0.0 | 0.00 | 0.00 | 0.00 | 92 | 1010.5 |
| 20260903104038 | 58 | 290 | 0.0 | 0.0 | 0.00 | 0.00 | 0.00 | 92 | 1010.5 |
| 20260903103534 | 58 | 290 | 0.0 | 0.0 | 0.00 | 0.00 | 0.00 | 92 | 1010.5 |
| 20260903102029 | 58 | 290 | 0.0 | 0.0 | 0.00 | 0.00 | 0.00 | 92 | 1010.5 |
| 20260903101024 | 58 | 290 | 0.0 | 1.7 | 0.00 | 0.00 | 0.00 | 92 | 1010.5 |
| 20260903100519 | 58 | 290 | 0.0 | 1.7 | 0.00 | 0.00 | 0.00 | 92 | 1010.5 |
| 20260903100019 | 58 | 290 | 0.9 | 2.6 | 0.00 | 0.00 | 0.00 | 92 | 1010.5 |
| 20260903095516 | 58 | 290 | 0.9 | 2.6 | 0.00 | 0.00 | 0.00 | 92 | 1010.5 |
| 20260903095011 | 58 | 290 | 0.9 | 2.6 | 0.00 | 0.00 | 0.00 | 91 | 1010.5 |
| 20260903094516 | 58 | 290 | 0.9 | 2.6 | 0.00 | 0.00 | 0.00 | 91 | 1010.5 |
| 20260903094012 | 58 | 290 | 0.9 | 1.7 | 0.00 | 0.00 | 0.00 | 91 | 1010.6 |
| 20260903093504 | 58 | 290 | 0.0 | 3.5 | 0.00 | 0.00 | 0.00 | 91 | 1010.6 |
| 20260903093006 | 58 | 290 | 0.9 | 3.5 | 0.00 | 0.00 | 0.00 | 91 | 1010.6 |
| 20260903092502 | 58 | 290 | 0.9 | 2.6 | 0.00 | 0.00 | 0.00 | 91 | 1010.9 |
| 20260903092000 | 58 | 290 | 0.9 | 2.6 | 0.00 | 0.00 | 0.00 | 91 | 1010.9 |
| 20260903091500 | 59 | 290 | 0.9 | 2.6 | 0.00 | 0.00 | 0.00 | 91 | 1010.9 |